Location: Chequamegon National Forest
(46.1070°N, 90.8420°W)
Time: 06:25:23
(UTC-06:00)

ISS - All Passes

Search period start: 30 January 2015 00:00
Search period end: 09 February 2015 00:00
Orbit: 401 x 408 km, 51.6° (Epoch: 29 January)

Date Brightness Start Highest point End Pass type
(mag) Time Alt. Az. Time Alt. Az. Time Alt. Az.
30 Jan - 00:19:01 10° WNW 00:22:01 31° N 00:25:03 10° ENE night (unlit)
30 Jan - 01:55:56 10° WNW 01:59:02 36° NNE 02:02:09 10° E night (unlit)
30 Jan - 03:32:24 10° WNW 03:35:41 63° SSW 03:38:57 10° SE night (unlit)
30 Jan - 05:11:24 10° SW 05:11:39 10° SW 05:11:46 10° SW visible
30 Jan - 21:49:45 10° SW 21:52:59 61° SSE 21:56:15 10° ENE night (unlit)
30 Jan - 23:26:31 10° W 23:29:37 37° NNW 23:32:44 10° ENE night (unlit)
31 Jan - 01:03:37 10° WNW 01:06:37 31° N 01:09:38 10° ENE night (unlit)
31 Jan - 02:40:07 10° WNW 02:43:26 80° NNE 02:46:44 10° ESE night (unlit)
31 Jan - 04:17:16 10° W 04:19:36 18° SW 04:21:53 10° S night (unlit)
31 Jan - 20:57:46 10° SSW 21:00:47 35° SE 21:03:51 10° ENE night (unlit)
31 Jan - 22:34:01 10° W 22:37:13 48° NNW 22:40:26 10° ENE night (unlit)
01 Feb - 00:11:13 10° WNW 00:14:10 29° N 00:17:08 10° ENE night (unlit)
01 Feb - 01:47:51 10° WNW 01:51:06 53° NNE 01:54:20 10° E night (unlit)
01 Feb - 03:24:31 10° WNW 03:27:29 30° SW 03:30:24 10° SSE night (unlit)
01 Feb - 20:06:09 10° S 20:08:38 21° SE 20:11:11 10° E night (unlit)
01 Feb - 21:41:35 10° WSW 21:44:52 70° NNW 21:48:09 10° ENE night (unlit)
01 Feb - 23:18:43 10° WNW 23:21:42 30° N 23:24:41 10° ENE night (unlit)
02 Feb - 00:55:33 10° WNW 00:58:41 39° NNE 01:01:49 10° E night (unlit)
02 Feb - 02:32:02 10° WNW 02:35:16 52° SSW 02:38:29 10° SE night (unlit)
02 Feb - 19:15:17 10° SSE 19:16:31 12° SE 19:17:51 10° ESE visible
02 Feb - 20:49:16 10° SW 20:52:32 74° SSE 20:55:49 10° ENE night (unlit)
02 Feb - 22:26:10 10° W 22:29:13 34° NNW 22:32:17 10° ENE night (unlit)
03 Feb - 00:03:12 10° WNW 00:06:13 32° N 00:09:16 10° ENE night (unlit)
03 Feb - 01:39:39 10° WNW 01:42:58 88° SSW 01:46:16 10° ESE night (unlit)
03 Feb - 03:17:05 10° W 03:19:04 15° SW 03:20:57 10° S night (unlit)
03 Feb - 19:57:08 10° SW 20:00:15 42° SE 20:03:23 10° ENE visible
03 Feb - 21:33:35 10° W 21:36:44 43° NNW 21:39:55 10° ENE night (unlit)
03 Feb - 23:10:45 10° WNW 23:13:43 30° N 23:16:41 10° ENE night (unlit)
04 Feb - 00:47:19 10° WNW 00:50:36 60° NNE 00:53:52 10° ESE night (unlit)
04 Feb - 02:24:06 10° W 02:26:53 25° SW 02:29:39 10° SSE night (unlit)
04 Feb - 19:05:18 10° SSW 19:08:00 25° SE 19:10:46 10° E visible
04 Feb - 20:41:03 10° WSW 20:44:17 61° NNW 20:47:34 10° ENE visible
04 Feb - 22:18:13 10° WNW 22:21:10 30° N 22:24:08 10° ENE night (unlit)
04 Feb - 23:54:58 10° WNW 23:58:08 43° NNE 00:01:19 10° E night (unlit)
05 Feb - 01:31:29 10° WNW 01:34:38 43° SW 01:37:47 10° SE night (unlit)
05 Feb - 18:14:00 10° S 18:15:48 14° SE 18:17:43 10° E visible
05 Feb - 19:48:36 10° WSW 19:51:53 87° SSE 19:55:11 10° ENE visible
05 Feb - 21:25:36 10° WNW 21:28:37 32° N 21:31:39 10° ENE night (unlit)
05 Feb - 23:02:34 10° WNW 23:05:38 34° N 23:08:41 10° E night (unlit)
06 Feb - 00:39:01 10° WNW 00:42:18 75° SSW 00:45:36 10° SE night (unlit)
06 Feb - 02:16:55 10° WSW 02:18:20 12° SW 02:19:39 10° SSW night (unlit)
06 Feb - 18:56:20 10° SW 18:59:30 51° SSE 19:02:43 10° ENE visible
06 Feb - 20:32:57 10° W 20:36:04 39° NNW 20:39:12 10° ENE visible
06 Feb - 22:10:05 10° WNW 22:13:03 30° N 22:16:02 10° ENE night (unlit)
06 Feb - 23:46:36 10° WNW 23:49:54 69° NNE 23:53:11 10° ESE night (unlit)
07 Feb - 01:23:32 10° W 01:26:07 21° SW 01:28:38 10° S night (unlit)
07 Feb - 18:04:19 10° SSW 18:07:11 29° SE 18:10:06 10° ENE visible
07 Feb - 19:40:19 10° W 19:43:32 53° NNW 19:46:47 10° ENE visible
07 Feb - 21:17:30 10° WNW 21:20:27 29° N 21:23:24 10° ENE night (unlit)
07 Feb - 22:54:11 10° WNW 22:57:24 47° NNE 23:00:36 10° E night (unlit)
08 Feb - 00:30:46 10° WNW 00:33:49 36° SW 00:36:52 10° SSE night (unlit)
08 Feb - 17:12:42 10° S 17:14:54 17° SE 17:17:10 10° E daylight
08 Feb - 18:47:47 10° WSW 18:51:03 81° NNW 18:54:20 10° ENE visible
08 Feb - 20:24:51 10° WNW 20:27:50 31° N 20:30:50 10° ENE visible
08 Feb - 22:01:44 10° WNW 22:04:49 36° NNE 22:07:55 10° E night (unlit)
08 Feb - 23:38:11 10° WNW 23:41:27 62° SSW 23:44:42 10° SE night (unlit)
